Location: Mt. Chestnut Observatory
(40.9038°N, 79.9956°W)
Time: 18:09:43
(UTC-04:00)

Daily predictions for brighter satellites

Satellite Brightness Start Highest point End
(mag) Time Altitude Azimuth Time Altitude Azimuth Time Altitude Azimuth
Aureole 2 Rocket 3.0 19:24:46 10° SSW 19:29:08 74° ESE 19:33:25 10° NNE
CZ-4 R/B 4.5 19:28:01 10° SW 19:30:55 20° W 19:33:49 10° NW
ATLAS CENTAUR R/B 3.5 19:27:20 10° SSW 19:31:49 61° ESE 19:45:28 10° NE
Cosmos 2333 Rocket 3.8 19:29:47 10° SW 19:35:08 39° WNW 19:40:33 10° N
SAR-Lupe-1 4.3 19:32:43 10° SSE 19:36:09 49° ENE 19:39:37 10° N
Okean 3 Rocket 3.6 19:31:42 10° N 19:36:17 85° E 19:40:50 10° S
SJ-6B 3.1 19:33:47 10° SSE 19:37:38 50° ENE 19:41:36 10° N
Meteor 1-29 4.4 19:38:07 10° NE 19:40:38 18° E 19:43:07 10° SE
Helios 1A 4.0 19:37:25 10° SE 19:40:59 27° ENE 19:44:33 10° N
FREGAT/IRIS 3.2 19:38:13 10° SE 19:41:06 36° ENE 19:43:58 10° N
Resurs 01 Rocket 2.3 19:38:43 10° SE 19:42:42 33° ENE 19:46:42 10° N
NOSS 3-2 (A) 3.5 19:39:42 10° SSW 19:45:45 90° WNW 19:52:24 10° NE
Cosmos 1758 3.8 19:46:15 10° SSE 19:50:03 39° E 19:53:53 10° NNE
Cosmos 1452 Rocket 3.6 19:45:37 10° N 19:50:48 55° ENE 19:55:56 10° SE
Cosmos 1484 Rocket 3.7 19:48:40 10° S 19:52:24 53° W 19:56:15 10° NNW
Timation 1 Rocket 4.4 19:49:20 10° NNW 19:55:21 89° WSW 20:01:19 10° SSE
ATLAS 5 CENTAUR R/B 1.8 19:50:44 10° SSW 19:55:28 76° ESE 20:00:37 10° NE
Cosmos 2237 Rocket 4.1 19:50:53 10° WSW 19:55:56 32° WNW 20:01:00 10° N
Abrixas 3.4 19:53:14 10° SSW 19:55:56 31° SE 19:57:41 17° E
Nadezhda 4 Rocket 4.4 19:54:02 10° N 19:59:55 41° ENE 20:05:43 10° SE
Cosmos 1346 4.0 19:58:34 10° NNE 20:01:09 26° ENE 20:02:37 18° ESE
Cosmos 1072 Rocket 4.5 19:56:15 10° S 20:02:22 89° WNW 20:08:31 10° N
COSMO-SKYMED 1 4.0 19:58:23 10° N 20:02:30 43° WNW 20:06:35 10° SW
Meteor 1-21 Rocket 4.2 20:02:09 10° N 20:07:37 56° ENE 20:13:02 10° SSE
ASTEX 1 4.0 20:07:18 10° NNE 20:11:44 33° E 20:16:07 10° SSE
Cosmos 1420 Rocket 4.3 20:06:48 10° N 20:11:56 48° ENE 20:16:34 12° SE
SL-16 R/B 3.3 20:11:10 10° SW 20:16:38 48° WNW 20:22:09 10° NNE
CENTAUR R/B 3.0 20:12:10 10° S 20:17:26 33° ESE 20:23:14 10° NE
Helios 1B rocket 2.3 20:13:57 10° NNE 20:18:04 72° ESE 20:22:10 10° S
Cosmos 1544 3.1 20:15:36 10° S 20:19:15 57° E 20:22:57 10° NNE
METEOR-M 4.2 20:15:15 10° SSE 20:20:36 86° WSW 20:26:00 10° NNW
Cosmos 1766 Rocket 3.8 20:17:29 10° NNW 20:21:51 72° W 20:26:10 10° S
NOSS 3-2 (C) 4.0 20:18:47 10° SW 20:24:49 63° NW 20:31:27 10° NNE
CZ-2D R/B 3.8 20:24:44 29° ESE 20:26:02 38° ENE 20:29:40 10° N
Cosmos 1076 Rocket 4.5 20:23:17 10° NNW 20:27:29 50° W 20:31:40 10° SSW
Spot 2 Rocket 3.5 20:22:36 10° SSE 20:27:38 82° WSW 20:32:42 10° NNW
OAO 3 Rocket 3.9 20:23:26 10° WSW 20:27:53 40° S 20:30:04 25° SE
Cosmos 1048 Rocket 4.0 20:25:36 10° S 20:30:48 59° ESE 20:35:59 10° NNE
Cosmos 1269 Rocket 3.9 20:26:06 10° S 20:31:20 71° ESE 20:36:36 10° NNE
FENGYUN 3A 3.6 20:28:59 10° SSE 20:34:17 65° ENE 20:39:38 10° N
Cosmos-2242 3.3 20:30:16 10° SSW 20:34:36 71° W 20:39:01 10° N
Cosmos 2034 Rocket 4.3 20:31:02 10° SSW 20:37:16 71° W 20:43:36 10° N
Envisat 4.4 20:39:21 20° NE 20:39:21 20° NE 20:42:30 10° NNE
H-2A R/B 2.8 20:39:08 42° SE 20:40:08 56° ENE 20:43:57 10° N
Gbstr 26 Del rocket 3.5 20:37:33 10° SSW 20:41:47 45° SE 20:42:57 38° E
Cosmos 1805 4.3 20:38:08 10° SSW 20:41:56 46° W 20:45:45 10° N
Cosmos 1953 3.5 20:39:29 10° SSW 20:43:18 44° W 20:47:08 10° N
Cosmos 2151 3.9 20:39:41 10° NNE 20:42:41 30° NE 20:42:41 30° NE
ISS -3.2 20:41:17 10° SW 20:44:06 57° S 20:44:06 57° S
Cosmos 1174 4.4 20:39:53 10° S 20:44:15 42° SE 20:44:15 42° SE
ALOS 2.2 20:42:16 14° SSE 20:46:13 87° ENE 20:50:55 10° NNW
BREEZE-M DEB (TANK) 3.9 20:36:32 10° W 20:49:53 59° N 20:52:04 33° ENE
Cosmos 1842 Rocket 3.4 20:50:02 10° S 20:54:20 89° E 20:58:43 10° N
Cosmos 1500 Rocket 3.5 20:50:34 10° N 20:55:01 89° ENE 20:57:01 33° S
Cosmos 158 Rocket 3.8 20:51:11 10° S 20:55:57 58° ESE 21:00:45 10° NNE
USA 215 3.3 20:50:33 10° NE 20:57:05 78° NW 21:03:36 10° SW
Cosmos 1943 Rocket 3.2 20:53:32 10° N 20:58:07 28° NE 20:58:07 28° NE
Cosmos 2369 Rocket 2.2 20:52:49 10° NNW 20:58:27 61° ENE 20:59:45 48° ESE
Cosmos 1943 3.1 20:53:17 10° S 20:58:50 65° ESE 21:04:24 10° NNE
GPS 2-04 Rocket1 4.0 20:56:10 10° SW 20:58:12 25° SSW 20:58:12 25° SSW
Cosmos 1470 3.0 21:01:31 10° SSW 21:05:23 65° W 21:09:15 10° N
Cosmos 2263 4.4 20:59:53 10° NNW 21:05:31 50° ENE 21:05:59 49° ENE
Cosmos 1733 3.3 21:08:47 72° WNW 21:08:47 72° WNW 21:12:30 10° N
Cosmos 1627 Rocket 4.4 21:03:17 10° N 21:09:28 66° E 21:11:13 47° SE
SL-8 R/B 3.8 21:06:49 10° WSW 21:11:35 74° NNW 21:12:17 62° NNE
SeaSat 1 3.3 21:15:13 35° S 21:15:13 35° S 21:18:07 10° SSW
ERS-1 Rocket 3.6 21:15:22 42° NE 21:15:22 42° NE 21:19:10 10° N
CZ-4B DEB 4.4 21:14:31 32° WSW 21:14:45 32° W 21:17:44 10° NNW
Resurs 01 Rocket 4.0 21:15:44 10° SSW 21:19:13 22° W 21:22:43 10° NW
Cosmos 1674 4.1 21:16:49 10° NNW 21:20:26 38° W 21:21:24 32° SW
Cosmos 1110 Rocket 4.2 21:17:42 10° NNW 21:22:20 58° NNE 21:22:20 58° NNE
Meteor 1-16 Rocket 4.2 21:36:59 69° NNW 21:36:59 69° NNW 21:41:43 10° N
Meteor 1-11 4.2 21:34:24 10° N 21:40:07 83° WNW 21:40:07 83° WNW
ATLAS 5 CENTAUR R/B 4.4 21:37:15 10° W 21:40:49 19° NW 21:44:36 10° N
Cosmos 839 Rocket 4.2 21:35:50 10° NW 21:43:21 75° WSW 21:44:15 65° S
Cosmos 2279 Rocket 4.0 21:46:27 73° N 21:46:27 73° N 21:52:02 10° N
GP-B 4.3 21:41:40 10° NNW 21:45:48 39° W 21:45:48 39° W
Cosmos 1655 Rocket 4.1 21:49:33 10° NNW 21:55:44 68° W 21:55:58 67° WSW
CENTAUR R/B 3.4 22:01:55 10° WSW 22:07:48 46° NW 22:14:27 10° NNE
Cosmos 2369 Rocket 4.4 22:38:07 10° WNW 22:41:35 18° W 22:41:35 18° W
Cosmos 1943 Rocket 4.0 22:36:56 10° NW 22:39:39 27° NW 22:39:39 27° NW
